[[{"header":{"parameterUnit":"m.s-1","parameterCategory":1,"la1":30.2991,"la2":30.254,"lo1":-89.0895,"lo2":-89.0444,"dy":0.0017,"dx":0.0017,"nx":28,"ny":28,"refTime":"2024-04-22T09:00:00:Z","depth":0,"parameterNumber":2,"parameterNumberName":"U-component_of_WINDS"},"data":[0,0,0,0,0,0,0,0,0,0,0,0,0,0,0,0,0,0,0,0,0,0,0,0,0,0,0,0,0,0,0,0,0,0,0,0,0,0,0,0,0,0,0,0,0,0,0,0,0,0,0,0,0,0,0,0,0,0,-1.6768,-1.6768,0,-1.6707,-1.6707,-1.6706,-1.6662,-1.6662,-1.6661,-1.6661,-1.6596,-1.6595,-1.6594,0,0,0,0,0,0,0,0,0,0,0,0,0,-1.6846,-1.6845,-1.6768,-1.6768,-1.6767,-1.6707,-1.6707,-1.6706,-1.6662,-1.6662,-1.6661,-1.6661,-1.6597,-1.6595,-1.6594,0,0,0,0,0,0,0,0,0,0,0,0,0,-1.6801,-1.6844,-1.6769,-1.6738,-1.6735,-1.6708,-1.6707,-1.6706,-1.6662,-1.6662,-1.6661,-1.6661,-1.6597,-1.6595,-1.6593,-1.6591,0,0,-1.6587,-1.6586,0,0,0,0,0,0,0,0,-1.6804,-1.6798,-1.6743,-1.674,-1.6736,-1.6692,-1.671,-1.6667,-1.6662,-1.669,-1.6661,-1.666,-1.6628,-1.6624,-1.6613,-1.6588,-1.6585,-1.6587,-1.6585,-1.6585,-1.6584,0,0,0,0,0,0,0,-1.6807,-1.6801,-1.6744,-1.6742,-1.6738,-1.6727,-1.672,-1.6702,-1.6663,-1.6687,-1.6684,-1.6677,-1.6626,-1.6616,-1.6612,-1.6584,-1.6587,-1.6585,-1.6584,-1.6583,-1.6555,-1.6556,0,0,0,0,0,0,-1.6815,-1.6804,-1.6746,-1.6742,-1.6769,-1.6726,-1.6718,-1.6707,-1.6663,-1.6656,-1.6678,-1.6676,-1.6619,-1.6614,-1.6609,-1.6604,-1.6585,-1.6583,-1.6581,-1.6555,-1.6555,-1.6556,0,0,0,0,0,0,-1.6817,-1.681,-1.6749,-1.6772,-1.6763,-1.6725,-1.6712,-1.6706,-1.6695,-1.6656,-1.6648,-1.6674,-1.6619,-1.6612,-1.6596,-1.6601,-1.6582,-1.658,-1.6554,-1.6555,-1.6555,-1.6593,0,0,0,0,0,0,-1.6819,-1.6811,-1.681,-1.6772,-1.6762,-1.6737,-1.6713,-1.6705,-1.6691,-1.6688,-1.665,-1.6643,-1.6618,-1.66,-1.6594,-1.6598,-1.6578,-1.6553,-1.6554,-1.6555,-1.6592,-1.6595,-1.6599,0,0,0,0,0,-1.6822,-1.6823,-1.681,-1.6804,-1.676,-1.6737,-1.6732,-1.6703,-1.6692,-1.6691,-1.6666,-1.6645,-1.6602,-1.6598,-1.6592,-1.6595,-1.6553,-1.6554,-1.6555,-1.659,-1.6595,-1.6599,0,0,0,0,0,0,-1.6861,-1.6817,-1.6803,-1.6791,-1.6769,-1.673,-1.6727,-1.6708,-1.6688,-1.6685,-1.6649,-1.6641,-1.6629,-1.6611,-1.6608,-1.6591,-1.6575,-1.6575,-1.6603,-1.6608,-1.6611,-1.6615,-1.6576,0,0,0,0,0,-1.6868,-1.6854,-1.6816,-1.6809,-1.6799,-1.6765,-1.6754,-1.6734,-1.6709,-1.6699,-1.6673,-1.6648,-1.663,-1.6618,-1.6598,-1.6589,-1.658,-1.6588,-1.6592,-1.6595,-1.6595,-1.6589,-1.6592,-1.656,-1.656,-1.656,0,0,-1.6882,-1.6857,-1.685,-1.6817,-1.6797,-1.6782,-1.6757,-1.6743,-1.6732,-1.6696,-1.668,-1.666,-1.6631,-1.6619,-1.6612,-1.6603,-1.6602,-1.6596,-1.6599,-1.6597,-1.6591,-1.6594,-1.6597,-1.656,-1.656,-1.656,0,0,-1.6901,-1.6881,-1.6873,-1.6854,-1.6825,-1.6803,-1.6801,-1.6766,-1.6752,-1.6735,-1.6709,-1.6695,-1.6663,-1.6643,-1.6629,-1.6643,-1.6623,-1.6638,-1.6656,-1.6651,-1.6653,-1.6655,-1.666,-1.6662,-1.6638,-1.6638,-1.6638,0,-1.6923,-1.6901,-1.6872,-1.6859,-1.6845,-1.6814,-1.6806,-1.6789,-1.6754,-1.6745,-1.6736,-1.6696,-1.6674,-1.6657,-1.6661,-1.665,-1.6647,-1.6641,-1.6655,-1.6657,-1.6659,-1.6663,-1.6665,-1.664,-1.664,-1.664,-1.6639,0,-1.6928,-1.6914,-1.6911,-1.688,-1.6866,-1.6855,-1.6825,-1.6814,-1.6796,-1.6775,-1.6759,-1.6732,-1.6706,-1.6701,-1.6683,-1.6682,-1.6677,-1.6662,-1.6645,-1.6664,-1.6667,-1.6669,-1.6643,-1.6642,-1.6642,-1.6641,0,0,-1.6968,-1.6922,-1.6922,-1.6907,-1.6874,-1.6861,-1.685,-1.6826,-1.6818,-1.6796,-1.6785,-1.676,-1.6746,-1.673,-1.671,-1.6705,-1.6718,-1.6691,-1.669,-1.6696,-1.6716,-1.6727,-1.6729,-1.6705,-1.6706,-1.6706,-1.6718,0,-1.6981,-1.6959,-1.6934,-1.6921,-1.6907,-1.6878,-1.6869,-1.6847,-1.6827,-1.6812,-1.6791,-1.6773,-1.6757,-1.6747,-1.6742,-1.6718,-1.6721,-1.6717,-1.6694,-1.6694,-1.6702,-1.6731,-1.6742,-1.6755,-1.6719,-1.6719,-1.6719,0,-1.6993,-1.6973,-1.696,-1.6928,-1.6921,-1.6913,-1.689,-1.6876,-1.6851,-1.6837,-1.6821,-1.6799,-1.6786,-1.6772,-1.6753,-1.675,-1.674,-1.6727,-1.6727,-1.6723,-1.6707,-1.6727,-1.6758,-1.676,-1.6721,-1.6721,-1.6721,0,-1.7023,-1.6993,-1.6981,-1.697,-1.6933,-1.6928,-1.6912,-1.6887,-1.6875,-1.6854,-1.6846,-1.6824,-1.6812,-1.6796,-1.6769,-1.6761,-1.6753,-1.6737,-1.6741,-1.6742,-1.6739,-1.674,-1.6769,-1.6734,-1.6734,-1.6734,-1.6734,0,-1.7039,-1.7032,-1.6994,-1.6987,-1.6978,-1.6949,-1.6941,-1.6922,-1.69,-1.6889,-1.6862,-1.6852,-1.6818,-1.6803,-1.6782,-1.677,-1.6765,-1.6753,-1.6747,-1.6755,-1.6756,-1.6746,-1.6745,-1.6735,-1.6735,-1.6735,-1.6734,0,-1.707,-1.7045,-1.703,-1.6997,-1.6989,-1.6984,-1.6955,-1.6947,-1.6927,-1.6912,-1.6907,-1.6876,-1.6857,-1.683,-1.6802,-1.6788,-1.6779,-1.6771,-1.6788,-1.6785,-1.679,-1.679,-1.6814,-1.6815,-1.6781,-1.6781,-1.6781,0,-1.7082,-1.7076,-1.7043,-1.7034,-1.702,-1.7005,-1.6993,-1.6965,-1.6953,-1.6925,-1.692,-1.69,-1.6883,-1.6855,-1.6829,-1.6809,-1.6799,-1.6809,-1.6795,-1.6804,-1.6798,-1.6799,-1.6798,-1.6811,-1.6812,-1.6812,-1.6813,0,-1.7106,-1.7094,-1.7078,-1.7058,-1.7045,-1.7027,-1.7009,-1.7003,-1.697,-1.6959,-1.694,-1.6927,-1.69,-1.6881,-1.6857,-1.684,-1.6821,-1.6817,-1.6817,-1.6824,-1.6835,-1.6829,-1.6796,-1.6816,-1.6816,-1.6816,-1.6816,-1.6815,-1.7127,-1.7121,-1.7097,-1.708,-1.7064,-1.7047,-1.7038,-1.7018,-1.7002,-1.6979,-1.6963,-1.6946,-1.6922,-1.6889,-1.6873,-1.6859,-1.6851,-1.6851,-1.685,-1.6851,-1.6854,-1.6838,-1.6855,-1.6855,-1.6855,-1.6855,-1.6854,0,-1.7149,-1.7133,-1.7118,-1.7094,-1.7081,-1.7065,-1.7044,-1.7034,-1.702,-1.7,-1.6983,-1.6963,-1.6944,-1.6918,-1.6897,-1.6891,-1.6882,-1.6887,-1.6886,-1.6883,-1.6862,-1.6864,-1.6895,-1.6895,-1.6895,-1.6895,-1.6895,-1.6895,-1.7159,-1.7148,-1.7133,-1.7114,-1.7097,-1.7081,-1.707,-1.7055,-1.7039,-1.7017,-1.7002,-1.6986,-1.6963,-1.6941,-1.6923,-1.6916,-1.6909,-1.6917,-1.6907,-1.6888,-1.6884,-1.6881,-1.6882,-1.6916,-1.6916,-1.6929,-1.6929,-1.6929]},{"header":{"parameterUnit":"m.s-1","parameterCategory":1,"la1":30.2991,"la2":30.254,"lo1":-89.0895,"lo2":-89.0444,"dy":0.0017,"dx":0.0017,"nx":28,"ny":28,"refTime":"2024-04-22T09:00:00:Z","depth":0,"parameterNumber":3,"parameterNumberName":"V-component_of_WINDS"},"data":[0,0,0,0,0,0,0,0,0,0,0,0,0,0,0,0,0,0,0,0,0,0,0,0,0,0,0,0,0,0,0,0,0,0,0,0,0,0,0,0,0,0,0,0,0,0,0,0,0,0,0,0,0,0,0,0,0,0,4.0671,4.0672,0,4.0704,4.0704,4.0704,4.0734,4.0735,4.0735,4.0735,4.0767,4.0767,4.0767,0,0,0,0,0,0,0,0,0,0,0,0,0,4.0634,4.0635,4.0671,4.0672,4.0672,4.0704,4.0704,4.0704,4.0734,4.0735,4.0735,4.0736,4.0766,4.0767,4.0767,0,0,0,0,0,0,0,0,0,0,0,0,0,4.0657,4.0635,4.0671,4.0691,4.0693,4.0703,4.0704,4.0705,4.0734,4.0735,4.0735,4.0736,4.0766,4.0767,4.0768,4.0761,0,0,4.077,4.077,0,0,0,0,0,0,0,0,4.0655,4.0658,4.0687,4.0689,4.0692,4.0716,4.0702,4.0723,4.0734,4.0718,4.0735,4.0736,4.0749,4.0751,4.0756,4.0762,4.0764,4.077,4.077,4.0771,4.0771,0,0,0,0,0,0,0,4.0654,4.0657,4.0684,4.0688,4.069,4.0698,4.0701,4.0706,4.073,4.072,4.0722,4.0726,4.075,4.0755,4.0757,4.0764,4.077,4.077,4.0771,4.0771,4.0768,4.0767,0,0,0,0,0,0,4.0649,4.0655,4.0683,4.0685,4.0675,4.0698,4.0702,4.0707,4.073,4.0734,4.0725,4.0727,4.0754,4.0756,4.0758,4.0752,4.0771,4.0771,4.0772,4.0768,4.0768,4.0767,0,0,0,0,0,0,4.0648,4.0651,4.0682,4.0671,4.0675,4.0698,4.0703,4.0708,4.0713,4.0734,4.0738,4.0726,4.0754,4.0757,4.076,4.0754,4.0772,4.0772,4.0769,4.0768,4.0767,4.074,0,0,0,0,0,0,4.0647,4.0651,4.0649,4.067,4.0676,4.0684,4.0703,4.0708,4.0714,4.0717,4.0736,4.074,4.0755,4.0759,4.0761,4.0755,4.0773,4.077,4.0769,4.0768,4.0742,4.0739,4.0736,0,0,0,0,0,4.0646,4.0639,4.0649,4.0652,4.0673,4.0683,4.0686,4.0704,4.0713,4.0711,4.0725,4.0739,4.0754,4.0759,4.0762,4.0756,4.077,4.0769,4.0768,4.0743,4.074,4.0736,0,0,0,0,0,0,4.0615,4.0642,4.0653,4.0653,4.0666,4.0688,4.0686,4.0699,4.0709,4.0711,4.0732,4.0736,4.0737,4.0747,4.0752,4.0751,4.0764,4.0763,4.0745,4.0741,4.0738,4.0736,4.0773,0,0,0,0,0,4.0609,4.0615,4.0638,4.0636,4.0642,4.0663,4.0668,4.0681,4.0694,4.0699,4.0714,4.0726,4.0734,4.0738,4.0746,4.0744,4.0749,4.0741,4.0738,4.0736,4.0735,4.0735,4.0732,4.0763,4.0763,4.0763,0,0,4.0595,4.0611,4.0613,4.063,4.0642,4.0647,4.0667,4.0672,4.0676,4.07,4.0704,4.0715,4.073,4.0731,4.0732,4.0739,4.0727,4.0734,4.0732,4.0732,4.0733,4.073,4.0728,4.0762,4.0763,4.0763,0,0,4.0573,4.0585,4.0585,4.0597,4.0614,4.0628,4.0628,4.0649,4.0657,4.0662,4.068,4.0686,4.0698,4.0708,4.0715,4.0698,4.0711,4.07,4.0685,4.0685,4.0682,4.068,4.0675,4.0672,4.0699,4.0699,4.0699,0,4.0553,4.0563,4.0584,4.0588,4.0595,4.0618,4.0619,4.0628,4.0647,4.0651,4.0659,4.0676,4.0688,4.0691,4.0687,4.0692,4.0693,4.0698,4.0681,4.0679,4.0678,4.0672,4.067,4.0698,4.0698,4.0698,4.0698,0,4.0538,4.0545,4.0543,4.0562,4.0569,4.0571,4.0592,4.0596,4.0609,4.0622,4.0627,4.0642,4.0655,4.0656,4.0668,4.0662,4.0666,4.0677,4.0691,4.0673,4.0668,4.0667,4.0696,4.0696,4.0697,4.0697,0,0,4.0497,4.0528,4.0527,4.0536,4.0557,4.0562,4.0566,4.0579,4.0582,4.0595,4.0598,4.0609,4.062,4.0627,4.0641,4.0641,4.0627,4.0652,4.0653,4.0647,4.0622,4.0613,4.0611,4.0636,4.0636,4.0636,4.0621,0,4.0479,4.0487,4.0506,4.0508,4.0515,4.0537,4.054,4.0553,4.0566,4.0573,4.0587,4.0595,4.0608,4.0613,4.0614,4.0629,4.0622,4.063,4.064,4.064,4.0635,4.0608,4.0599,4.0584,4.0619,4.0619,4.0619,0,4.0458,4.047,4.0473,4.0495,4.0498,4.0501,4.0514,4.0521,4.0537,4.0546,4.0555,4.0571,4.0575,4.0588,4.0595,4.06,4.0605,4.0613,4.0613,4.0614,4.0628,4.0609,4.058,4.0578,4.0616,4.0616,4.0616,0,4.0428,4.0445,4.0449,4.0456,4.0482,4.0483,4.0493,4.051,4.0516,4.0528,4.0533,4.0545,4.0551,4.056,4.0578,4.0586,4.0583,4.0597,4.0591,4.0591,4.059,4.0589,4.0561,4.0593,4.0593,4.0593,4.0593,0,4.0405,4.0406,4.0436,4.0439,4.0441,4.0463,4.0464,4.0477,4.0491,4.0496,4.0516,4.0521,4.0545,4.0552,4.0566,4.057,4.0573,4.058,4.0584,4.0579,4.0578,4.0582,4.0584,4.0592,4.0592,4.0592,4.0592,0,4.0372,4.0392,4.0398,4.0422,4.0428,4.0429,4.0449,4.0453,4.0467,4.0474,4.0477,4.0499,4.0509,4.0528,4.0542,4.0552,4.0553,4.0559,4.0548,4.055,4.0543,4.0544,4.0516,4.0514,4.0547,4.0547,4.0546,0,4.0356,4.0358,4.0382,4.0388,4.0398,4.0406,4.0414,4.0436,4.0443,4.0461,4.0462,4.0474,4.0484,4.0499,4.0516,4.0527,4.0534,4.0524,4.0536,4.0531,4.0535,4.0535,4.0535,4.0521,4.0521,4.052,4.052,0,4.0326,4.0336,4.0347,4.0361,4.0369,4.0381,4.0394,4.0397,4.0422,4.0429,4.0439,4.0447,4.0463,4.0474,4.0489,4.0499,4.0514,4.0516,4.0516,4.051,4.0504,4.0507,4.0541,4.0517,4.0517,4.0517,4.0518,4.0518,4.0301,4.0304,4.0322,4.0333,4.0346,4.0358,4.0362,4.0378,4.0387,4.0403,4.0415,4.0425,4.0441,4.0462,4.0472,4.048,4.0487,4.0485,4.0485,4.0484,4.0482,4.0502,4.0482,4.0482,4.0482,4.0482,4.0483,0,4.0273,4.0286,4.0296,4.0314,4.0323,4.0337,4.0352,4.0358,4.0367,4.0381,4.0392,4.0404,4.0415,4.0434,4.0447,4.045,4.0457,4.0452,4.0452,4.0455,4.0475,4.0475,4.0446,4.0446,4.0446,4.0446,4.0446,4.0446,4.0259,4.0265,4.0277,4.029,4.0303,4.0313,4.0321,4.0332,4.0344,4.0357,4.0367,4.038,4.0396,4.041,4.0421,4.0426,4.043,4.0424,4.0431,4.045,4.0453,4.0456,4.0456,4.0424,4.0424,4.041,4.041,4.041]}]]